• In Uzbekistan
  • List of Countries
  • For 7 days
  • Water Temperature
  • Satellite Maps
  • Weather Map
  • Weather Widgets
  • user-avatar
    Login

    Hourly Weather Shaki

    Today, 25 June, Monday

    Time Temperature Precipitation Wind Pressure Humidity
    00:00 +26°C° 0 mm 2 mps 735 mmHg 39%
    01:00 +26°C° 0 mm 2 mps 735 mmHg 40%
    02:00 +26°C° 0 mm 2 mps 735 mmHg 41%
    03:00 +25°C° 0 mm 1 mps 735 mmHg 41%
    04:00 +26°C° 0 mm 1 mps 735 mmHg 41%
    05:00 +27°C° 0 mm 1 mps 735 mmHg 41%
    06:00 +28°C° 0 mm 1 mps 735 mmHg 41%
    07:00 +29°C° 0 mm 1 mps 735 mmHg 38%
    08:00 +31°C° 0 mm 1 mps 735 mmHg 35%
    09:00 +32°C° 0 mm 2 mps 735 mmHg 32%
    10:00 +34°C° 0 mm 2 mps 735 mmHg 31%
    11:00 +35°C° 0 mm 2 mps 735 mmHg 29%
    12:00 +36°C° 0 mm 3 mps 735 mmHg 28%
    13:00 +36°C° 0 mm 3 mps 734 mmHg 27%
    14:00 +37°C° 0 mm 4 mps 734 mmHg 26%
    15:00 +37°C° 0 mm 4 mps 734 mmHg 26%
    16:00 +37°C° 0 mm 4 mps 734 mmHg 28%
    17:00 +36°C° 0 mm 4 mps 734 mmHg 30%
    18:00 +35°C° 0 mm 4 mps 734 mmHg 31%
    19:00 +33°C° 0 mm 3 mps 734 mmHg 34%
    20:00 +31°C° 0 mm 3 mps 734 mmHg 36%
    21:00 +29°C° 0 mm 3 mps 734 mmHg 38%
    22:00 +28°C° 0 mm 3 mps 734 mmHg 38%
    23:00 +27°C° 0 mm 3 mps 734 mmHg 39%

    Tomorrow, 26 June, Tuesday

    Time Temperature Precipitation Wind Pressure Humidity
    00:00 +27°C° 0 mm 2 mps 734 mmHg 39%
    01:00 +26°C° 0 mm 2 mps 734 mmHg 40%
    02:00 +26°C° 0 mm 2 mps 734 mmHg 40%
    03:00 +26°C° 0 mm 2 mps 734 mmHg 41%
    04:00 +26°C° 0 mm 2 mps 734 mmHg 40%
    05:00 +27°C° 0 mm 1 mps 734 mmHg 39%
    06:00 +28°C° 0 mm 1 mps 734 mmHg 38%
    07:00 +30°C° 0 mm 1 mps 734 mmHg 34%
    08:00 +32°C° 0 mm 1 mps 733 mmHg 30%
    09:00 +34°C° 0 mm 2 mps 733 mmHg 26%
    10:00 +35°C° 0 mm 2 mps 733 mmHg 24%
    11:00 +36°C° 0 mm 2 mps 733 mmHg 23%
    12:00 +37°C° 0 mm 2 mps 732 mmHg 22%
    13:00 +38°C° 0 mm 3 mps 732 mmHg 21%
    14:00 +38°C° 0 mm 3 mps 732 mmHg 20%
    15:00 +39°C° 0 mm 3 mps 731 mmHg 20%
    16:00 +38°C° 0 mm 3 mps 731 mmHg 22%
    17:00 +37°C° 0 mm 3 mps 731 mmHg 24%
    18:00 +37°C° 0 mm 3 mps 731 mmHg 25%
    19:00 +35°C° 0 mm 3 mps 732 mmHg 27%
    20:00 +33°C° 0 mm 3 mps 732 mmHg 28%
    21:00 +30°C° 0 mm 3 mps 732 mmHg 30%
    22:00 +29°C° 0 mm 3 mps 732 mmHg 30%
    23:00 +28°C° 0 mm 3 mps 732 mmHg 31%

    Day after tomorrow, 27 June, Wednesday

    Time Temperature Precipitation Wind Pressure Humidity
    00:00 +28°C° 0 mm 2 mps 732 mmHg 31%
    01:00 +27°C° 0 mm 2 mps 732 mmHg 31%
    02:00 +27°C° 0 mm 2 mps 732 mmHg 31%
    03:00 +26°C° 0 mm 2 mps 732 mmHg 31%
    04:00 +27°C° 0 mm 2 mps 732 mmHg 31%
    05:00 +28°C° 0 mm 2 mps 732 mmHg 31%
    06:00 +29°C° 0 mm 2 mps 732 mmHg 32%
    07:00 +31°C° 0 mm 2 mps 732 mmHg 28%
    08:00 +32°C° 0 mm 2 mps 732 mmHg 25%
    09:00 +35°C° 0 mm 2 mps 732 mmHg 21%
    10:00 +36°C° 0 mm 2 mps 731 mmHg 21%
    11:00 +37°C° 0 mm 2 mps 731 mmHg 21%
    12:00 +38°C° 0 mm 3 mps 731 mmHg 20%
    13:00 +38°C° 0 mm 3 mps 731 mmHg 20%
    14:00 +39°C° 0 mm 3 mps 731 mmHg 21%
    15:00 +39°C° 0 mm 3 mps 730 mmHg 21%
    16:00 +39°C° 0 mm 3 mps 730 mmHg 23%
    17:00 +38°C° 0 mm 3 mps 730 mmHg 25%
    18:00 +38°C° 0 mm 3 mps 731 mmHg 26%
    19:00 +35°C° 0 mm 3 mps 731 mmHg 29%
    20:00 +33°C° 0 mm 3 mps 731 mmHg 32%
    21:00 +30°C° 0 mm 3 mps 732 mmHg 34%
    22:00 +30°C° 0 mm 3 mps 732 mmHg 34%
    23:00 +29°C° 0 mm 2 mps 732 mmHg 34%

    28 June, Thursday

    Time Temperature Precipitation Wind Pressure Humidity
    00:00 +28°C° 0 mm 2 mps 732 mmHg 35%
    01:00 +28°C° 0 mm 2 mps 732 mmHg 35%
    02:00 +27°C° 0 mm 2 mps 732 mmHg 35%
    03:00 +27°C° 0 mm 2 mps 732 mmHg 36%
    04:00 +28°C° 0 mm 2 mps 732 mmHg 35%
    05:00 +29°C° 0 mm 1 mps 732 mmHg 35%
    06:00 +30°C° 0 mm 1 mps 732 mmHg 35%
    07:00 +31°C° 0 mm 1 mps 732 mmHg 31%
    08:00 +33°C° 0 mm 1 mps 732 mmHg 27%
    09:00 +35°C° 0 mm 1 mps 732 mmHg 23%
    10:00 +37°C° 0 mm 2 mps 732 mmHg 22%
    11:00 +38°C° 0 mm 2 mps 732 mmHg 21%
    12:00 +39°C° 0 mm 3 mps 732 mmHg 20%
    13:00 +39°C° 0 mm 3 mps 732 mmHg 19%
    14:00 +40°C° 0 mm 3 mps 732 mmHg 19%
    15:00 +40°C° 0 mm 3 mps 731 mmHg 19%
    16:00 +41°C° 0 mm 4 mps 731 mmHg 20%
    17:00 +40°C° 0 mm 4 mps 731 mmHg 22%
    18:00 +38°C° 0 mm 4 mps 731 mmHg 23%
    19:00 +36°C° 0 mm 3 mps 732 mmHg 26%
    20:00 +34°C° 0 mm 3 mps 732 mmHg 28%
    21:00 +31°C° 0 mm 3 mps 732 mmHg 30%
    22:00 +30°C° 0 mm 3 mps 732 mmHg 31%
    23:00 +29°C° 0 mm 3 mps 732 mmHg 31%

    29 June, Friday

    Time Temperature Precipitation Wind Pressure Humidity
    00:00 +29°C° 0 mm 3 mps 732 mmHg 32%
    01:00 +28°C° 0 mm 2 mps 732 mmHg 31%
    02:00 +28°C° 0 mm 2 mps 732 mmHg 31%
    03:00 +27°C° 0 mm 2 mps 732 mmHg 31%
    04:00 +28°C° 0 mm 2 mps 732 mmHg 31%
    05:00 +29°C° 0 mm 2 mps 732 mmHg 31%
    06:00 +30°C° 0 mm 1 mps 732 mmHg 30%
    07:00 +32°C° 0 mm 1 mps 732 mmHg 27%
    08:00 +34°C° 0 mm 2 mps 732 mmHg 24%
    09:00 +36°C° 0 mm 2 mps 731 mmHg 21%
    10:00 +37°C° 0 mm 2 mps 731 mmHg 20%
    11:00 +38°C° 0 mm 2 mps 731 mmHg 18%
    12:00 +39°C° 0 mm 3 mps 731 mmHg 17%
    13:00 +40°C° 0 mm 3 mps 730 mmHg 17%
    14:00 +40°C° 0 mm 3 mps 730 mmHg 17%
    15:00 +42°C° 0 mm 3 mps 730 mmHg 16%
    16:00 +40°C° 0 mm 3 mps 730 mmHg 18%
    17:00 +39°C° 0 mm 3 mps 730 mmHg 20%
    18:00 +39°C° 0 mm 3 mps 730 mmHg 21%
    19:00 +37°C° 0 mm 3 mps 730 mmHg 23%
    20:00 +34°C° 0 mm 3 mps 730 mmHg 25%
    21:00 +31°C° 0 mm 3 mps 731 mmHg 27%
    22:00 +30°C° 0 mm 3 mps 731 mmHg 28%
    23:00 +30°C° 0 mm 3 mps 731 mmHg 29%

    30 June, Saturday

    Time Temperature Precipitation Wind Pressure Humidity
    00:00 +29°C° 0 mm 2 mps 731 mmHg 30%
    01:00 +28°C° 0 mm 2 mps 731 mmHg 31%
    02:00 +28°C° 0 mm 2 mps 731 mmHg 31%
    03:00 +28°C° 0 mm 2 mps 731 mmHg 32%
    04:00 +29°C° 0 mm 2 mps 731 mmHg 32%
    05:00 +30°C° 0 mm 2 mps 732 mmHg 31%
    06:00 +30°C° 0 mm 2 mps 732 mmHg 31%
    07:00 +32°C° 0 mm 2 mps 732 mmHg 27%
    08:00 +35°C° 0 mm 2 mps 732 mmHg 23%
    09:00 +37°C° 0 mm 2 mps 732 mmHg 19%
    10:00 +38°C° 0 mm 2 mps 732 mmHg 18%
    11:00 +39°C° 0 mm 3 mps 731 mmHg 17%
    12:00 +41°C° 0 mm 4 mps 731 mmHg 16%
    13:00 +42°C° 0 mm 4 mps 731 mmHg 16%
    14:00 +42°C° 0 mm 4 mps 731 mmHg 16%
    15:00 +42°C° 0 mm 5 mps 730 mmHg 16%
    16:00 +42°C° 0 mm 4 mps 730 mmHg 18%
    17:00 +41°C° 0 mm 4 mps 731 mmHg 20%
    18:00 +40°C° 0 mm 4 mps 731 mmHg 22%
    19:00 +37°C° 0 mm 4 mps 731 mmHg 24%
    20:00 +35°C° 0 mm 4 mps 731 mmHg 26%
    21:00 +31°C° 0 mm 3 mps 732 mmHg 29%
    22:00 +31°C° 0 mm 3 mps 732 mmHg 30%
    23:00 +30°C° 0 mm 3 mps 732 mmHg 31%
    Show more